TimeEST,TemperatureF,Dew PointF,Humidity,Sea Level PressureIn,VisibilityMPH,Wind Direction,Wind SpeedMPH,Gust SpeedMPH,PrecipitationIn,Events,Conditions,WindDirDegrees,DateUTC
12:54 AM,35.1,28.9,78,29.99,10.0,WNW,13.8,28.8,N/A,,Overcast,290,2013-01-07 05:54:00
1:27 AM,35.6,28.4,75,29.98,10.0,SW,6.9,-,N/A,,Overcast,220,2013-01-07 06:27:00
1:42 AM,35.6,28.4,75,29.99,10.0,SW,5.8,-,N/A,,Overcast,220,2013-01-07 06:42:00
1:54 AM,35.1,28.9,78,30.02,10.0,SW,4.6,-,N/A,,Overcast,230,2013-01-07 06:54:00
2:24 AM,35.6,28.4,75,30.00,10.0,Variable,6.9,-,N/A,,Overcast,0,2013-01-07 07:24:00
2:54 AM,35.1,28.9,78,30.03,10.0,WSW,5.8,-,N/A,,Overcast,250,2013-01-07 07:54:00
3:54 AM,35.1,28.9,78,30.05,10.0,West,9.2,-,N/A,,Overcast,270,2013-01-07 08:54:00
4:54 AM,35.1,28.9,78,30.07,9.0,WSW,8.1,-,N/A,,Overcast,250,2013-01-07 09:54:00
5:13 AM,33.8,30.2,87,30.06,9.0,NNW,4.6,-,N/A,,Overcast,340,2013-01-07 10:13:00
5:22 AM,33.8,30.2,87,30.07,8.0,NW,5.8,-,N/A,,Overcast,320,2013-01-07 10:22:00
5:54 AM,32.0,26.1,79,30.13,9.0,NNW,8.1,-,N/A,,Overcast,330,2013-01-07 10:54:00
6:54 AM,28.9,19.0,67,30.18,10.0,NW,8.1,-,N/A,,Overcast,310,2013-01-07 11:54:00
7:54 AM,26.1,18.0,71,30.22,10.0,WNW,5.8,-,N/A,,Overcast,300,2013-01-07 12:54:00
8:54 AM,24.1,16.0,71,30.28,10.0,West,5.8,-,N/A,,Overcast,280,2013-01-07 13:54:00
9:11 AM,24.8,15.8,69,30.27,10.0,WSW,4.6,-,N/A,,Overcast,250,2013-01-07 14:11:00
9:54 AM,23.0,16.0,74,30.33,10.0,South,6.9,-,N/A,,Overcast,180,2013-01-07 14:54:00
10:54 AM,25.0,15.1,66,30.34,10.0,West,6.9,-,N/A,,Overcast,280,2013-01-07 15:54:00
11:54 AM,25.0,15.1,66,30.34,10.0,West,5.8,-,N/A,,Overcast,270,2013-01-07 16:54:00
12:54 PM,26.1,16.0,66,30.35,10.0,West,5.8,-,N/A,,Overcast,280,2013-01-07 17:54:00
2:09 PM,26.6,15.8,64,30.32,10.0,Calm,Calm,-,N/A,,Partly Cloudy,0,2013-01-07 19:09:00
2:54 PM,27.0,17.1,66,30.37,10.0,Calm,Calm,-,N/A,,Partly Cloudy,0,2013-01-07 19:54:00
3:54 PM,27.0,16.0,63,30.38,10.0,Calm,Calm,-,N/A,,Clear,0,2013-01-07 20:54:00
4:54 PM,23.0,15.1,72,30.38,10.0,Calm,Calm,-,N/A,,Clear,0,2013-01-07 21:54:00
6:54 PM,16.0,12.0,84,30.37,10.0,SSE,4.6,-,N/A,,Unknown,150,2013-01-07 23:54:00
7:54 PM,16.0,12.9,88,30.37,9.0,SSE,4.6,-,N/A,,Clear,160,2013-01-08 00:54:00
8:54 PM,12.9,10.0,88,30.35,7.0,Calm,Calm,-,N/A,,Clear,0,2013-01-08 01:54:00
9:54 PM,12.0,8.1,84,30.35,7.0,North,3.5,-,N/A,,Clear,350,2013-01-08 02:54:00
10:54 PM,10.0,7.0,87,30.34,6.0,Calm,Calm,-,N/A,,Clear,0,2013-01-08 03:54:00
11:54 PM,10.9,7.0,84,30.32,6.0,Calm,Calm,-,N/A,,Clear,0,2013-01-08 04:54:00